Regional Weather Roundup
Issued by NWS Wakefield, VA

Home | Current Version | Previous Version | Text Only | Print | Product List | Glossary On
Versions: 1 2 3 4 5 6 7 8 9 10 11 12 13 14 15 16 17 18 19 20 21 22 23 24 25 26 27 28 29 30 31 32 33 34 35 36 37 38 39 40 41 42 43 44 45 46 47 48 49 50
000
ASUS41 KAKQ 211414
RWRAKQ

REGIONAL WEATHER ROUNDUP
NATIONAL WEATHER SERVICE WAKEFIELD VA
1000 AM EDT TUE APR 21 2015

Note: "fair" indicates few or no clouds below 12,000 feet with no
significant weather and/or obstructions to visibility. * = Denotes
station may not report precipitation (e.g., rain,snow,etc.),
thunder or fog.

VAZ042-051-052>054-056-211500-
NORTHERN VIRGINIA

CITY           SKY/WX    TMP DP  RH WIND       PRES   REMARKS
WASH NATIONAL  MOSUNNY   62  32  32 W25G37    29.79R
DULLES         MOSUNNY   57  33  40 W23G30    29.79R
FORT BELVOIR   SUNNY     61  34  36 NW12      29.78S
QUANTICO       MOSUNNY   61  34  36 NW15      29.80S
FREDERICKSBRG* SUNNY     63  36  37 W8        29.80R
STAFFORD*      SUNNY     60  34  36 W6        29.84R
WARRENTON      SUNNY     62  37  39 W9        29.79S
CULPEPER*      SUNNY     63  36  36 W7        29.80S
MANASSAS*      MOSUNNY   61  32  33 W13G20    29.79S
LEESBURG*      SUNNY     59  36  41 NW21G28   29.79R
WINCHESTER     MOSUNNY   55  23  28 W16G29    29.79S
FRONT ROYAL*   PTSUNNY   54  32  43 NW9G18    29.79R
LURAY*         FAIR      59  32  36 W10G23    29.80S
$$

VAZ048-049-060>072-079>083-211500-
CENTRAL AND SOUTH CENTRAL VIRGINIA

CITY           SKY/WX    TMP DP  RH WIND       PRES   REMARKS
RICHMOND       MOSUNNY   64  35  34 W16G28    29.82R
CHESTERFIELD*  NOT AVBL
PETERSBURG*    SUNNY     65  35  33 W9G17     29.84R
HANOVER        SUNNY     62  37  39 W12       29.83R
TAPPAHANNOCK*  SUNNY     64  26  23 W14G22    29.81R
QUINTON*       FAIR      63  39  42 NW12G18   29.81S
CHARLOTTSVILLE SUNNY     58  29  33 NW8G17    29.81S
GORDONSVILLE*  FAIR      59  31  35 W6        29.81R
ORANGE*        SUNNY     59  30  33 W16G25    29.83R
LOUISA*        SUNNY     61  36  39 W10G18    29.80S
BUMPASS*       FAIR      60  35  39 W9        29.81R
FARMVILLE*     MOSUNNY   63  36  37 W8        29.84R
CREWE*         FAIR      62  36  38 W10G18    29.84S
FORT PICKETT*  FAIR      62  38  41 W13       29.84S
CHASE CITY*    FAIR      61  37  40 NW8G17    29.87R
CLARKSVILLE*   FAIR      59  41  51 W7        29.87S
SOUTH HILL*    SUNNY     60  42  51 NW8       29.91S
LAWRENCEVILLE* FAIR      61  44  53 NW9       29.84S
EMPORIA*       SUNNY     61  45  55 W9        29.86S
$$

VAZ088>098-211500-
SOUTHEAST VIRGINIA

CITY           SKY/WX    TMP DP  RH WIND       PRES   REMARKS
NORFOLK        SUNNY     67  46  47 N14G20    29.79R
VIRGINIA BEACH MOSUNNY   69  49  48 NW20G25   29.79R
NORFOLK NAVAL  MOSUNNY   70  47  43 N14       29.81R
WEST POINT*    SUNNY     67  31  26 W10       29.82S
SALUDA*        FAIR      64  39  41 NW14G21   29.80R
NEWPORT NEWS   SUNNY     69  45  41 NW12      29.81R
LANGLEY AFB    SUNNY     65  43  45 NW17G23   29.79R
FORT EUSTIS    SUNNY     65  45  47 NW14      29.79R
WILLIAMSBURG*  SUNNY     66  46  48 NW15G24   29.82R
HR EXEC AP*    FAIR      66  48  52 NW12G18   29.83R
FRANKLIN*      SUNNY    N/A N/A N/A W15       29.84R
WAKEFIELD      SUNNY     65  41  41 NW9G17    29.83R
$$

VAZ020-022-025-037-045-211500-
WEST CENTRAL AND SOUTHWEST VIRGINIA

CITY           SKY/WX    TMP DP  RH WIND       PRES   REMARKS
STAUNTON*      SUNNY     55  26  33 W10G18    29.84R
WAYNESBORO*    FAIR      52  30  41 W6G16     29.83R
HOT SPRINGS VA MOSUNNY   41  26  54 W18G29    29.79R
LYNCHBURG      SUNNY     56  30  37 W12G18    29.87R
DANVILLE       MOSUNNY   61  39  44 W9        29.89R
SOUTH BOSTON*  FAIR      59  37  42 NW9G16    29.88R
MARTINSVILLE   PTSUNNY   58  34  40 NW9       29.92R
ROANOKE        MOSUNNY   54  29  38 NW15G29   29.88R
BLACKSBURG     SUNNY     49  28  45 NW15      29.91R
DUBLIN*        SUNNY     51  29  42 W14G23    29.90S
MARION*        SUNNY     50  29  43 W17G26    29.91R
HILLSVILLE*    SUNNY     47  29  49 W15       29.89R
RICHLANDS*     FAIR      47  28  46 W9        29.91R
WISE*          MOSUNNY   48  28  46 W8        29.93S
ABINGDON*      SUNNY     52  30  42 W6        29.93R
$$

MDZ021>025-VAZ099-100-211500-
SOUTHERN MARYLAND AND THE DELMARVA PENINSULA

CITY           SKY/WX    TMP DP  RH WIND       PRES   REMARKS
PATUXENT RIVER MOSUNNY   63  37  38 NW15      29.78R
BAY BRIDGE APT   N/A    N/A N/A N/A W13G24    29.77R
LEONARDTOWN    SUNNY     61  32  33 W9G20     29.80R
DOVER          SUNNY     61  40  46 W21G29    29.70R
GEORGETOWN     SUNNY     62  35  36 W12G29    29.75R
EASTON         SUNNY     63  41  45 NW14G35   29.80
CAMBRIDGE      MOSUNNY   61  37  41 W13G23    29.77S
SALISBURY      PTSUNNY   62  42  47 NW16G22   29.76R
OCEAN CITY     MOSUNNY   62  41  46 NW21G29   29.76R
WALLOPS ISLAND PTSUNNY   63  37  38 NW18G29   29.77R
ACCOMACK*      CLOUDY    61  41  48 N17       29.79R
$$

NCZ012>017-030>032-211500-
NORTH CENTRAL AND EASTERN NORTH CAROLINA

CITY           SKY/WX    TMP DP  RH WIND       PRES   REMARKS
ROANOKE RAPIDS FAIR      61  43  51 NW9       29.86R
RALEIGH        MOSUNNY   61  43  51 W5        29.89R
ELIZABETH CITY SUNNY     66  51  58 NW14G23   29.81R
AHOSKIE*       SUNNY     62  45  52 NW7       29.85R
EDENTON*       SUNNY     65  49  54 NW9G17    29.83R
CURRITUCK*     SUNNY     66  49  54 NW8       29.81R
KILL DEVIL HLS SUNNY     67  53  61 W10G16    29.80R
MANTEO         SUNNY     66  53  63 NW13G21   29.82R
CAPE HATTERAS  SUNNY     67  54  63 NW12G21   29.82R
TARBORO*       FAIR      64  46  50 NW9G18    29.87R
GOLDSBORO      SUNNY     65  42  42 NW12      29.85R
WASHINGTON     SUNNY     65  44  47 NW9G16    29.85S
GREENVILLE     SUNNY     64  41  42 NW13      29.89R
NEW BERN       SUNNY     68  46  45 NW14G21   29.86R
WILMINGTON     SUNNY     69  43  38 NW14      29.88R
$$

VAZ048-211500-
ELSEWHERE

CITY           SKY/WX    TMP DP  RH WIND       PRES   REMARKS
HARRISBURG PA  PTSUNNY   56  38  50 NW16      29.72R
BALTIMORE      MOSUNNY   59  31  34 W20G28    29.76R
ANNAPOLIS      SUNNY     59  28  30 W21G32    29.76R
ANDREWS AFB    SUNNY     59  32  35 W26G39    29.77R
PHILADELPHIA   PTSUNNY   60  38  43 W16G23    29.72R
HENDERSON NC   SUNNY     61  40  46 NW8       29.87S
GREENSBORO     MOSUNNY   59  37  44 NW13      29.90R
ROCKY MOUNT    SUNNY     63  45  51 NW8       29.87R
$$

VAZ100-211500-
MARINE

STATION/POSITION TIME  TEMP    WIND        PRES    WAVE   SWELL
                       AIR SEA DIR/SP/G            HT/PER HT/PER
                 (UTC) (F)     (DEG/KT/KT) (MB)    (FT/S) (FT/S)
BRANDYWINE LGT   1300   56 52  310/ 15/ 17 1006.5R
CAPE MAY NJ      1300   57 55  310/ 13/ 17 1006.0R
LEWES DE         1300   58 50  310/ 18/ 21 1006.6R
15NM E FENWICK I 1350   53 47              1006.6R   6/ 9
OCEAN-CITY-INLET 1300   60 56  340/ 19/ 23 1006.5R
WACHAPREAGUE VA  1300   62 64  330/  9/ 19 1008.1R
THOMAS POINT MD  1400   58 54  280/ 22/ 27 1008.4R
GOOSES REEF MD   1400   59 56  320/ 14/ 17   N/A     1/ 3
COVE POINT MD    1312   58     330/ 10/ 15 1008.1R
SOLOMONS ISLAND  1300      57                N/A
BISHOPS HEAD MD  1300   60 62  310/ 20/ 25 1008.0R
PINEY POINT MD   1306          320/ 15/ 16   N/A
CAMBRIDGE MD     1300   59 60  300/ 13/ 19 1007.9R
LEWISETTA VA     1300   61 63              1008.5R
RAPPAHANNOCK LGT 1300          330/ 15/ 16 1008.9R
STINGRAY PT      1400   62 58  310/ 16/ 19 1010.2R   2/ 2
YORK RVR RNG VA  1300   63     340/ 20/ 24 1008.0R
YORKTOWN VA      1300   62 61  320/ 21/ 25 1008.4R
DOMINION TERM VA 1300   64     320/ 18/ 23 1008.5R
KIPTOPEKE VA     1300      63  360/ 14/ 24   N/A
CHES BAY BRIDGE  1300   62 56  300/ 15/ 17 1008.1R
CAPE HENRY VA    1300   63     290/ 11/ 15 1007.1R
CHESAPEAKE LGHT  1300   61     300/ 22/ 22 1008.9R
WILLOUBY STN VA  1300   64     320/ 18/ 21 1009.2R
S CRANEY ISL VA  1300          300/ 12/ 18 1008.6R
CAPE HENRY BUOY  1328      53                N/A     4/ 8   2/13
1ST LANDING BUOY 1400   60     360/ 10/ 10 1009.0R   2/ 4
OFFSHORE WE BUOY 1311      49                N/A     5/ 8   3/ 8
64NM E OF VA BCH 1350   58 56  280/ 16/ 19 1007.7R   5/ 7   5/ 7
DUCK PIER NC     1300   64 46  300/ 17/ 21 1007.8R
44056 DUCK FRF   1311      50                N/A     3/ 8   2/13
OREGON INLET NC  1300   67 67  280/ 12/ 16 1008.7R
HATTERAS NC      1300   67 68  300/ 16/ 20 1008.7R
DIAMOND SHLS NC  1350   69 74  300/ 17/ 21 1009.4R   7/ 7   3/ 7
CAPE LOOKOUT NC  1400   68     290/  9/ 10 1010.3R
$$



USA.gov is the U.S. government's official web portal to all federal, state and local government web resources and services.